04-12-2023, 00:00:04,    131,    1.8,    5.4,   0.00,   0.00,  999.4,    0.4, -999.0
04-12-2023, 00:00:14,    130,    1.0,    5.2,   0.00,   0.00,  999.4,    0.6, -999.0
04-12-2023, 00:00:24,    133,    2.6,    5.3,   0.00,   0.00,  999.4,    0.2, -999.0
04-12-2023, 00:00:34,    171,    2.1,    5.4,   0.00,   0.00,  999.4,    0.2, -999.0
04-12-2023, 00:00:43,    135,    1.6,    5.3,   0.00,   0.00,  999.4,    0.4, -999.0
04-12-2023, 00:00:54,    135,    0.6,    5.4,   0.00,   0.00,  999.4,    0.4, -999.0
04-12-2023, 00:01:04,    134,    0.9,    5.4,   0.00,   0.00,  999.4,    0.2, -999.0
04-12-2023, 00:01:13,    122,    0.8,    5.4,   0.01,   0.01,  999.3,    0.4, -999.0
04-12-2023, 00:01:24,    124,    0.9,    5.3,   0.00,   0.00,  999.3,    0.2, -999.0
04-12-2023, 00:01:34,    125,    0.5,    5.2,   0.00,   0.00,  999.3,    0.5, -999.0
04-12-2023, 00:01:44,    127,    0.1,    5.3,   0.00,   0.00,  999.3,    0.1, -999.0
04-12-2023, 00:01:53,    126,    0.0,    5.2,   0.00,   0.00,  999.2,    0.1, -999.0
04-12-2023, 00:02:04,    122,    0.7,    5.3,   0.00,   0.00,  999.4,    0.2, -999.0
04-12-2023, 00:02:14,    111,    1.0,    5.3,   0.00,   0.00,  999.4,    0.3, -999.0
04-12-2023, 00:02:23,    153,    0.6,    5.4,   0.00,   0.00,  999.4,    0.2, -999.0
04-12-2023, 00:02:33,    131,    1.5,    5.4,   0.00,   0.00,  999.4,    0.2, -999.0
04-12-2023, 00:02:44,    141,    1.9,    5.3,   0.00,   0.00,  999.4,    0.3, -999.0
04-12-2023, 00:02:54,    121,    1.0,    5.3,   0.00,   0.00,  999.3,    0.0, -999.0
04-12-2023, 00:03:03,    103,    1.9,    5.4,   0.01,   0.01,  999.3,    0.4, -999.0
04-12-2023, 00:03:13,    122,    1.5,    5.2,   0.00,   0.00,  999.4,    0.4, -999.0
04-12-2023, 00:03:24,    128,    3.9,    5.3,   0.00,   0.00,  999.4,    0.5, -999.0
04-12-2023, 00:03:33,    125,    4.0,    5.4,   0.00,   0.00,  999.3,    0.3, -999.0
04-12-2023, 00:03:43,    168,    1.9,    5.4,   0.00,   0.00,  999.3,    0.4, -999.0
04-12-2023, 00:03:53,    118,    1.2,    5.4,   0.00,   0.00,  999.3,    0.4, -999.0
04-12-2023, 00:04:04,    123,    1.3,    5.4,   0.00,   0.00,  999.3,    0.3, -999.0
04-12-2023, 00:04:13,    118,    1.5,    5.4,   0.00,   0.00,  999.3,    0.7, -999.0
04-12-2023, 00:04:23,    103,    1.2,    5.3,   0.01,   0.01,  999.3,    0.2, -999.0
04-12-2023, 00:04:34,    105,    1.9,    5.4,   0.00,   0.00,  999.3,    0.4, -999.0
04-12-2023, 00:04:43,    103,    0.1,    5.4,   0.00,   0.00,  999.2,    0.3, -999.0
04-12-2023, 00:04:53,    103,    0.1,    5.4,   0.00,   0.00,  999.1,    0.1, -999.0
04-12-2023, 00:05:03,    109,    0.9,    5.4,   0.00,   0.00,  999.2,    0.3, -999.0
04-12-2023, 00:05:14,    109,    1.0,    5.4,   0.00,   0.00,  999.2,    0.4, -999.0
04-12-2023, 00:05:23,    124,    3.2,    5.5,   0.00,   0.00,  999.3,    0.4, -999.0
04-12-2023, 00:05:33,    135,    1.9,    5.4,   0.00,   0.00,  999.2,    0.5, -999.0
04-12-2023, 00:05:43,    116,    2.0,    5.5,   0.01,   0.01,  999.3,    0.3, -999.0
04-12-2023, 00:05:53,    109,    2.9,    5.5,   0.00,   0.00,  999.2,    0.3, -999.0
04-12-2023, 00:06:03,    112,    2.0,    5.4,   0.00,   0.00,  999.3,    0.4, -999.0
04-12-2023, 00:06:13,    127,    1.7,    5.5,   0.00,   0.00,  999.2,    0.4, -999.0
04-12-2023, 00:06:23,    134,    2.0,    5.4,   0.00,   0.00,  999.3,    0.2, -999.0
04-12-2023, 00:06:33,    135,    0.6,    5.4,   0.00,   0.00,  999.2,    0.4, -999.0
04-12-2023, 00:06:43,    111,    1.0,    5.4,   0.01,   0.01,  999.2,    0.2, -999.0
04-12-2023, 00:06:53,    154,    1.9,    5.4,   0.00,   0.00,  999.2,    0.3, -999.0
04-12-2023, 00:07:03,    162,    0.3,    5.4,   0.00,   0.00,  999.2,    0.3, -999.0
04-12-2023, 00:07:13,    142,    1.5,    5.4,   0.00,   0.00,  999.2,    0.3, -999.0
04-12-2023, 00:07:23,    123,    1.6,    5.4,   0.00,   0.00,  999.2,    0.3, -999.0
04-12-2023, 00:07:33,    123,    0.0,    5.3,   0.00,   0.00,  999.1,    0.3, -999.0
04-12-2023, 00:07:43,    117,    1.7,    5.4,   0.00,   0.00,  999.2,    0.3, -999.0
04-12-2023, 00:07:53,    127,    2.5,    5.4,   0.01,   0.01,  999.2,    0.4, -999.0
04-12-2023, 00:08:03,    128,    0.6,    5.4,   0.00,   0.00,  999.2,    0.2, -999.0
04-12-2023, 00:08:13,    106,    0.9,    5.4,   0.00,   0.00,  999.2,    0.5, -999.0
04-12-2023, 00:08:23,    122,    1.9,    5.4,   0.00,   0.00,  999.2,    0.3, -999.0
04-12-2023, 00:08:33,    123,    2.0,    5.4,   0.00,   0.00,  999.2,    0.2, -999.0
04-12-2023, 00:08:43,    140,    1.9,    5.5,   0.00,   0.00,  999.2,    0.4, -999.0
04-12-2023, 00:08:53,    139,    1.6,    5.4,   0.00,   0.01,  999.2,    0.1, -999.0
04-12-2023, 00:09:03,    139,    0.6,    5.4,   0.00,   0.00,  999.2,    0.7, -999.0
04-12-2023, 00:09:13,    139,    0.0,    5.3,   0.00,   0.00,  999.1,    0.2, -999.0
04-12-2023, 00:09:23,    139,    0.5,    5.4,   0.00,   0.00,  999.2,    0.0, -999.0
04-12-2023, 00:09:33,    135,    0.0,    5.3,   0.00,   0.00,  999.1,    0.4, -999.0
04-12-2023, 00:09:43,    113,    1.4,    5.4,   0.00,   0.00,  999.2,    0.2, -999.0
04-12-2023, 00:09:53,    105,    2.5,    5.5,   0.01,   0.01,  999.2,    0.3, -999.0
04-12-2023, 00:10:03,    119,    0.8,    5.4,   0.00,   0.00,  999.2,    0.3, -999.0
04-12-2023, 00:10:13,    103,    1.1,    5.4,   0.00,   0.00,  999.1,    0.5, -999.0
04-12-2023, 00:10:23,    120,    0.9,    5.4,   0.00,   0.00,  999.2,    0.4, -999.0
04-12-2023, 00:10:33,    117,    1.9,    5.5,   0.00,   0.00,  999.2,    0.2, -999.0
04-12-2023, 00:10:43,    113,    1.8,    5.5,   0.01,   0.01,  999.2,    0.4, -999.0
04-12-2023, 00:10:53,    115,    1.1,    5.5,   0.00,   0.00,  999.2,    0.3, -999.0
04-12-2023, 00:11:03,    154,    0.7,    5.5,   0.00,   0.00,  999.2,    0.4, -999.0
04-12-2023, 00:11:13,     97,    1.1,    5.4,   0.00,   0.00,  999.2,    0.2, -999.0
04-12-2023, 00:11:23,    114,    0.9,    5.4,   0.00,   0.00,  999.2,    0.3, -999.0
04-12-2023, 00:11:33,    113,    0.0,    5.4,   0.00,   0.00,  999.0,    0.3, -999.0
04-12-2023, 00:11:43,    114,    0.2,    5.4,   0.00,   0.01,  999.1,    0.3, -999.0
04-12-2023, 00:11:53,    101,    1.1,    5.4,   0.01,   0.00,  999.0,    0.4, -999.0
04-12-2023, 00:12:03,    118,    1.8,    5.5,   0.00,   0.00,  999.1,    0.2, -999.0
04-12-2023, 00:12:13,    119,    0.7,    5.4,   0.00,   0.00,  999.1,    0.5, -999.0
04-12-2023, 00:12:23,    119,    0.0,    5.4,   0.00,   0.00,  999.0,    0.2, -999.0
04-12-2023, 00:12:33,    119,    0.0,    5.3,   0.00,   0.00,  998.9,    0.4, -999.0
04-12-2023, 00:12:42,    119,    0.0,    5.4,   0.00,   0.00,  998.9,    0.2, -999.0
04-12-2023, 00:12:53,    119,    0.0,    5.3,   0.00,   0.00,  998.9,    0.4, -999.0
04-12-2023, 00:13:03,    119,    0.3,    5.4,   0.00,   0.01,  999.0,    0.2, -999.0
04-12-2023, 00:13:13,    119,    0.0,    5.3,   0.00,   0.00,  998.9,    0.3, -999.0
04-12-2023, 00:13:22,    119,    0.0,    5.4,   0.01,   0.00,  999.0,    0.2, -999.0
04-12-2023, 00:13:33,    157,    0.7,    5.4,   0.00,   0.00,  999.1,    0.3, -999.0
04-12-2023, 00:13:43,    136,    0.6,    5.3,   0.00,   0.00,  999.0,    0.4, -999.0
04-12-2023, 00:13:52,    136,    0.9,    5.4,   0.00,   0.00,  999.1,    0.1, -999.0
04-12-2023, 00:14:02,    136,    0.4,    5.5,   0.00,   0.00,  999.0,    0.7, -999.0
04-12-2023, 00:14:13,    135,    0.6,    5.5,   0.00,   0.00,  999.1,    0.2, -999.0
04-12-2023, 00:14:23,    136,    0.6,    5.4,   0.00,   0.01,  999.1,    0.4, -999.0
04-12-2023, 00:14:32,    135,    0.0,    5.3,   0.00,   0.00,  998.9,    0.3, -999.0
04-12-2023, 00:14:42,    135,    0.0,    5.3,   0.00,   0.00,  998.9,    0.3, -999.0
04-12-2023, 00:14:53,     91,    1.3,    5.4,   0.00,   0.00,  999.0,    0.3, -999.0
04-12-2023, 00:15:02,    120,    1.7,    5.5,   0.00,   0.00,  999.0,    0.0, -999.0
04-12-2023, 00:15:12,    111,    2.1,    5.4,   0.00,   0.00,  999.1,    0.5, -999.0
04-12-2023, 00:15:23,    119,    0.9,    5.4,   0.00,   0.00,  999.0,    0.4, -999.0
04-12-2023, 00:15:33,    109,    0.3,    5.5,   0.01,   0.01,  999.0,    0.2, -999.0
04-12-2023, 00:15:42,    121,    1.2,    5.4,   0.00,   0.00,  999.0,    0.2, -999.0
04-12-2023, 00:15:52,    118,    2.6,    5.5,   0.00,   0.00,  999.1,    0.2, -999.0
04-12-2023, 00:16:03,    135,    1.1,    5.5,   0.00,   0.00,  999.0,    0.3, -999.0
04-12-2023, 00:16:12,    116,    2.2,    5.4,   0.00,   0.00,  999.1,    0.5, -999.0
04-12-2023, 00:16:22,    129,    2.1,    5.4,   0.01,   0.01,  999.0,    0.2, -999.0
04-12-2023, 00:16:32,    109,    2.9,    5.4,   0.00,   0.00,  999.0,    0.3, -999.0
04-12-2023, 00:16:43,    115,    1.2,    5.5,   0.00,   0.00,  999.0,    0.3, -999.0
04-12-2023, 00:16:52,    135,    1.5,    5.5,   0.00,   0.00,  999.0,    0.5, -999.0
04-12-2023, 00:17:02,     98,    1.7,    5.4,   0.00,   0.00,  999.0,    0.5, -999.0
04-12-2023, 00:17:12,    123,    2.8,    5.5,   0.01,   0.01,  999.0,    0.3, -999.0
04-12-2023, 00:17:22,    137,    1.9,    5.4,   0.00,   0.00,  999.0,    0.4, -999.0
04-12-2023, 00:17:32,    116,    1.3,    5.4,   0.00,   0.00,  999.0,    0.2, -999.0
04-12-2023, 00:17:42,    123,    1.5,    5.5,   0.00,   0.00,  999.0,    0.4, -999.0
04-12-2023, 00:17:52,    122,    0.4,    5.4,   0.00,   0.00,  999.0,    0.3, -999.0
04-12-2023, 00:18:02,    110,    2.0,    5.4,   0.01,   0.01,  999.0,    0.4, -999.0
04-12-2023, 00:18:12,    117,    2.4,    5.4,   0.00,   0.00,  999.0,    0.5, -999.0
04-12-2023, 00:18:22,     87,    4.6,    5.4,   0.00,   0.00,  999.0,    0.3, -999.0
04-12-2023, 00:18:32,     60,    2.8,    5.4,   0.00,   0.00,  999.0,    0.2, -999.0
04-12-2023, 00:18:42,    131,    2.9,    5.5,   0.00,   0.00,  999.0,    0.4, -999.0
04-12-2023, 00:18:52,    139,    1.1,    5.5,   0.01,   0.01,  998.9,    0.3, -999.0
04-12-2023, 00:19:02,    139,    0.2,    5.3,   0.00,   0.00,  998.8,    0.2, -999.0
04-12-2023, 00:19:12,    136,    0.8,    5.4,   0.00,   0.00,  998.9,    0.3, -999.0
04-12-2023, 00:19:22,    138,    0.1,    5.4,   0.00,   0.00,  998.9,    0.3, -999.0
04-12-2023, 00:19:32,    120,    0.6,    5.4,   0.00,   0.00,  998.9,    0.2, -999.0
04-12-2023, 00:19:42,    116,    2.4,    5.4,   0.01,   0.01,  998.9,    0.4, -999.0
04-12-2023, 00:19:52,    136,    2.3,    5.4,   0.00,   0.00,  999.0,    0.4, -999.0
04-12-2023, 00:20:02,    117,    3.0,    5.4,   0.00,   0.00,  999.0,    0.3, -999.0
04-12-2023, 00:20:12,    127,    0.8,    5.4,   0.00,   0.01,  998.9,    0.2, -999.0
04-12-2023, 00:20:22,    156,    0.8,    5.4,   0.01,   0.00,  998.9,    0.3, -999.0
04-12-2023, 00:20:32,    138,    1.2,    5.4,   0.00,   0.00,  998.9,    0.3, -999.0
04-12-2023, 00:20:42,    121,    1.2,    5.4,   0.01,   0.01,  998.9,    0.4, -999.0
04-12-2023, 00:20:52,    115,    2.8,    5.4,   0.00,   0.00,  998.9,    0.1, -999.0
04-12-2023, 00:21:02,    120,    1.7,    5.4,   0.00,   0.00,  998.8,    0.4, -999.0
04-12-2023, 00:21:12,    127,    2.0,    5.5,   0.00,   0.00,  998.9,    0.3, -999.0
04-12-2023, 00:21:22,    125,    1.2,    5.4,   0.01,   0.01,  998.9,    0.4, -999.0
04-12-2023, 00:21:32,    110,    1.9,    5.4,   0.00,   0.00,  998.9,    0.3, -999.0
04-12-2023, 00:21:42,    121,    2.7,    5.5,   0.00,   0.00,  998.9,    0.3, -999.0
04-12-2023, 00:21:52,    135,    1.2,    5.5,   0.01,   0.01,  998.9,    0.4, -999.0
04-12-2023, 00:22:02,     98,    2.8,    5.4,   0.00,   0.00,  998.9,    0.5, -999.0
04-12-2023, 00:22:12,    111,    1.4,    5.5,   0.00,   0.00,  998.8,    0.2, -999.0
04-12-2023, 00:22:22,    111,    1.1,    5.4,   0.00,   0.00,  998.8,    0.4, -999.0
04-12-2023, 00:22:32,    114,    1.2,    5.5,   0.01,   0.01,  998.8,    0.1, -999.0
04-12-2023, 00:22:42,    122,    1.4,    5.5,   0.00,   0.00,  998.8,    0.5, -999.0
04-12-2023, 00:22:52,    119,    2.5,    5.5,   0.00,   0.00,  998.9,    0.7, -999.0
04-12-2023, 00:23:02,    157,    1.1,    5.5,   0.01,   0.01,  998.8,    0.5, -999.0
04-12-2023, 00:23:12,    155,    1.3,    5.4,   0.00,   0.00,  998.8,    0.2, -999.0
04-12-2023, 00:23:22,    160,    0.7,    5.3,   0.00,   0.00,  998.8,    0.2, -999.0
04-12-2023, 00:23:32,    116,    1.7,    5.4,   0.00,   0.00,  998.8,    0.5, -999.0
04-12-2023, 00:23:42,    141,    2.4,    5.3,   0.00,   0.00,  998.8,    0.3, -999.0
04-12-2023, 00:23:52,    126,    0.7,    5.3,   0.01,   0.01,  998.8,    0.2, -999.0
04-12-2023, 00:24:02,    116,    0.5,    5.3,   0.00,   0.00,  998.8,    0.1, -999.0
04-12-2023, 00:24:12,    117,    0.7,    5.4,   0.00,   0.00,  998.8,    0.3, -999.0
04-12-2023, 00:24:22,    101,    0.9,    5.4,   0.00,   0.00,  998.8,    0.3, -999.0
04-12-2023, 00:24:32,    129,    1.3,    5.4,   0.01,   0.01,  998.8,    0.6, -999.0
04-12-2023, 00:24:42,    130,    0.0,    5.3,   0.00,   0.00,  998.7,    0.1, -999.0
04-12-2023, 00:24:51,    108,    2.1,    5.3,   0.00,   0.00,  998.8,    0.2, -999.0
04-12-2023, 00:25:02,    160,    2.9,    5.4,   0.02,   0.01,  998.8,    0.3, -999.0
04-12-2023, 00:25:12,    148,    2.1,    5.4,   0.00,   0.00,  998.8,    0.4, -999.0
04-12-2023, 00:25:21,    141,    1.3,    5.4,   0.00,   0.00,  998.8,    0.2, -999.0
04-12-2023, 00:25:31,    107,    1.1,    5.4,   0.00,   0.00,  998.8,    0.5, -999.0
04-12-2023, 00:25:42,    146,    0.7,    5.4,   0.01,   0.01,  998.7,    0.2, -999.0
04-12-2023, 00:25:52,    154,    3.7,    5.4,   0.00,   0.00,  998.8,    0.5, -999.0
04-12-2023, 00:26:01,    126,    2.1,    5.4,   0.00,   0.00,  998.8,    0.6, -999.0
04-12-2023, 00:26:12,    130,    0.3,    5.3,   0.00,   0.01,  998.7,    0.2, -999.0
04-12-2023, 00:26:22,    129,    0.1,    5.3,   0.00,   0.00,  998.7,    0.3, -999.0
04-12-2023, 00:26:31,    135,    0.5,    5.3,   0.00,   0.00,  998.7,    0.3, -999.0
04-12-2023, 00:26:41,    135,    2.0,    5.3,   0.00,   0.00,  998.7,    0.2, -999.0
04-12-2023, 00:26:52,    155,    1.7,    5.3,   0.01,   0.01,  998.8,    0.2, -999.0
04-12-2023, 00:27:02,    141,    2.3,    5.4,   0.00,   0.00,  998.7,    0.3, -999.0
04-12-2023, 00:27:11,    118,    2.6,    5.3,   0.00,   0.00,  998.8,    0.2, -999.0
04-12-2023, 00:27:21,    104,    3.5,    5.4,   0.00,   0.00,  998.8,    0.3, -999.0
04-12-2023, 00:27:32,    112,    1.1,    5.4,   0.01,   0.01,  998.7,    0.3, -999.0
04-12-2023, 00:27:41,    119,    1.3,    5.4,   0.00,   0.00,  998.7,    0.3, -999.0
04-12-2023, 00:27:51,    128,    2.4,    5.4,   0.00,   0.00,  998.8,    0.9, -999.0
04-12-2023, 00:28:01,    134,    0.5,    5.3,   0.00,   0.00,  998.7,    0.4, -999.0
04-12-2023, 00:28:12,    133,    0.2,    5.3,   0.00,   0.00,  998.6,    0.3, -999.0
04-12-2023, 00:28:21,    150,    2.3,    5.4,   0.00,   0.00,  998.7,    0.2, -999.0
04-12-2023, 00:28:31,    148,    3.3,    5.4,   0.02,   0.01,  998.8,    0.1, -999.0
04-12-2023, 00:28:41,    119,    3.0,    5.3,   0.00,   0.00,  998.7,    0.1, -999.0
04-12-2023, 00:28:51,    165,    1.9,    5.3,   0.00,   0.00,  998.8,    0.3, -999.0
04-12-2023, 00:29:01,    106,    3.1,    5.3,   0.00,   0.00,  998.8,    0.4, -999.0
04-12-2023, 00:29:11,    121,    4.2,    5.4,   0.00,   0.00,  998.8,    0.3, -999.0
04-12-2023, 00:29:22,    141,    2.1,    5.3,   0.01,   0.01,  998.8,    0.5, -999.0
04-12-2023, 00:29:31,    127,    1.0,    5.4,   0.00,   0.00,  998.7,    0.4, -999.0
04-12-2023, 00:29:41,    127,    1.1,    5.4,   0.00,   0.00,  998.7,    0.2, -999.0
04-12-2023, 00:29:51,    100,    1.3,    5.4,   0.00,   0.00,  998.7,    0.3, -999.0
04-12-2023, 00:30:01,    100,    2.0,    5.4,   0.00,   0.00,  998.7,    0.3, -999.0
04-12-2023, 00:30:11,    114,    1.6,    5.4,   0.01,   0.01,  998.7,    0.4, -999.0
04-12-2023, 00:30:21,    130,    3.2,    5.4,   0.00,   0.00,  998.7,    0.4, -999.0
04-12-2023, 00:30:31,    104,    2.5,    5.5,   0.00,   0.00,  998.7,    0.3, -999.0
04-12-2023, 00:30:41,    118,    1.2,    5.4,   0.00,   0.00,  998.7,    0.3, -999.0
04-12-2023, 00:30:51,    133,    3.4,    5.4,   0.00,   0.00,  998.7,    0.3, -999.0
04-12-2023, 00:31:01,     92,    2.5,    5.4,   0.01,   0.01,  998.7,    0.3, -999.0
04-12-2023, 00:31:11,    105,    2.3,    5.4,   0.00,   0.00,  998.6,    0.4, -999.0
04-12-2023, 00:31:21,    110,    1.5,    5.3,   0.00,   0.00,  998.7,    0.4, -999.0
04-12-2023, 00:31:31,    146,    1.1,    5.4,   0.00,   0.00,  998.6,    0.5, -999.0
04-12-2023, 00:31:41,    153,    1.6,    5.4,   0.00,   0.00,  998.6,    0.4, -999.0
04-12-2023, 00:31:51,    153,    0.4,    5.3,   0.00,   0.00,  998.6,    0.4, -999.0
04-12-2023, 00:32:01,    139,    0.7,    5.3,   0.00,   0.01,  998.7,    0.4, -999.0
04-12-2023, 00:32:11,    140,    0.3,    5.3,   0.00,   0.00,  998.6,    0.2, -999.0
04-12-2023, 00:32:21,    159,    1.8,    5.3,   0.00,   0.00,  998.6,    0.2, -999.0
04-12-2023, 00:32:31,    113,    3.4,    5.3,   0.00,   0.00,  998.7,    0.4, -999.0
04-12-2023, 00:32:41,    127,    3.3,    5.3,   0.00,   0.00,  998.6,    0.6, -999.0
04-12-2023, 00:32:51,    147,    2.0,    5.4,   0.00,   0.00,  998.7,    0.3, -999.0
04-12-2023, 00:33:01,    147,    0.8,    5.3,   0.00,   0.00,  998.7,    0.3, -999.0
04-12-2023, 00:33:11,    147,    2.5,    5.3,   0.01,   0.01,  998.6,    0.3, -999.0
04-12-2023, 00:33:21,    130,    3.0,    5.4,   0.00,   0.00,  998.7,    0.2, -999.0
04-12-2023, 00:33:31,    119,    1.2,    5.4,   0.00,   0.00,  998.7,    0.4, -999.0
04-12-2023, 00:33:41,    144,    2.6,    5.4,   0.00,   0.00,  998.6,    0.3, -999.0
04-12-2023, 00:33:51,    161,    2.7,    5.4,   0.00,   0.00,  998.6,    0.3, -999.0
04-12-2023, 00:34:01,    116,    2.7,    5.4,   0.00,   0.00,  998.6,    0.2, -999.0
04-12-2023, 00:34:11,    129,    1.5,    5.4,   0.01,   0.01,  998.6,    0.5, -999.0
04-12-2023, 00:34:21,    136,    2.1,    5.4,   0.00,   0.00,  998.6,    0.1, -999.0
04-12-2023, 00:34:31,    133,    1.6,    5.4,   0.00,   0.00,  998.5,    0.4, -999.0
04-12-2023, 00:34:41,    173,    1.1,    5.4,   0.00,   0.00,  998.6,    0.3, -999.0
04-12-2023, 00:34:51,    159,    1.5,    5.3,   0.00,   0.00,  998.6,    0.5, -999.0
04-12-2023, 00:35:01,    155,    1.2,    5.3,   0.00,   0.00,  998.5,    0.1, -999.0
04-12-2023, 00:35:11,    152,    0.1,    5.3,   0.00,   0.00,  998.5,    0.2, -999.0
04-12-2023, 00:35:21,    118,    0.9,    5.4,   0.00,   0.01,  998.5,    0.5, -999.0
04-12-2023, 00:35:31,    122,    0.3,    5.4,   0.00,   0.00,  998.5,    0.5, -999.0
04-12-2023, 00:35:41,    157,    1.4,    5.5,   0.00,   0.00,  998.5,    0.4, -999.0
04-12-2023, 00:35:51,    121,    1.0,    5.4,   0.00,   0.00,  998.6,    0.3, -999.0
04-12-2023, 00:36:01,    120,    0.4,    5.4,   0.00,   0.00,  998.5,    0.7, -999.0
04-12-2023, 00:36:11,    160,    0.5,    5.4,   0.00,   0.00,  998.5,    0.5, -999.0
04-12-2023, 00:36:21,    171,    0.5,    5.3,   0.00,   0.00,  998.4,    0.3, -999.0
04-12-2023, 00:36:31,    135,    1.5,    5.3,   0.01,   0.01,  998.5,    0.5, -999.0
04-12-2023, 00:36:41,     99,    1.2,    5.4,   0.00,   0.00,  998.5,    0.4, -999.0
04-12-2023, 00:36:51,    107,    1.5,    5.4,   0.00,   0.00,  998.5,    0.3, -999.0
04-12-2023, 00:37:01,    100,    0.7,    5.4,   0.00,   0.00,  998.5,    0.3, -999.0
04-12-2023, 00:37:11,    129,    1.1,    5.4,   0.00,   0.00,  998.5,    0.4, -999.0
04-12-2023, 00:37:21,    112,    1.9,    5.4,   0.00,   0.00,  998.5,    0.3, -999.0
04-12-2023, 00:37:30,    151,    2.0,    5.4,   0.01,   0.01,  998.5,    0.6, -999.0
04-12-2023, 00:37:41,    143,    0.4,    5.4,   0.00,   0.00,  998.5,    0.4, -999.0
04-12-2023, 00:37:51,    111,    3.3,    5.4,   0.00,   0.00,  998.5,    0.3, -999.0
04-12-2023, 00:38:00,    124,    3.4,    5.4,   0.00,   0.00,  998.5,    0.4, -999.0
04-12-2023, 00:38:10,    161,    2.1,    5.2,   0.00,   0.00,  998.5,    0.1, -999.0
04-12-2023, 00:38:21,    155,    2.8,    5.4,   0.00,   0.00,  998.5,    0.5, -999.0
04-12-2023, 00:38:31,    132,    2.2,    5.3,   0.01,   0.01,  998.4,    0.0, -999.0
04-12-2023, 00:38:40,    131,    0.4,    5.3,   0.00,   0.00,  998.4,    0.5, -999.0
04-12-2023, 00:38:50,    134,    0.9,    5.3,   0.00,   0.00,  998.4,    0.3, -999.0
04-12-2023, 00:39:01,    138,    1.8,    5.4,   0.00,   0.00,  998.4,    0.5, -999.0
04-12-2023, 00:39:10,    138,    0.4,    5.3,   0.00,   0.00,  998.4,    0.1, -999.0
04-12-2023, 00:39:20,    138,    0.1,    5.2,   0.00,   0.00,  998.4,    0.3, -999.0
04-12-2023, 00:39:31,    138,    0.9,    5.3,   0.00,   0.00,  998.4,    0.5, -999.0
04-12-2023, 00:39:41,    114,    1.7,    5.4,   0.01,   0.01,  998.5,    0.1, -999.0
04-12-2023, 00:39:50,    116,    0.6,    5.4,   0.00,   0.00,  998.4,    0.2, -999.0
04-12-2023, 00:40:00,    116,    0.0,    5.2,   0.00,   0.00,  998.3,    0.3, -999.0
04-12-2023, 00:40:11,    117,    0.2,    5.3,   0.00,   0.00,  998.3,    0.1, -999.0
04-12-2023, 00:40:20,    123,    0.5,    5.4,   0.00,   0.00,  998.4,    0.2, -999.0
04-12-2023, 00:40:30,    122,    0.5,    5.3,   0.00,   0.00,  998.4,    0.3, -999.0
04-12-2023, 00:40:40,    131,    0.6,    5.3,   0.00,   0.00,  998.4,    0.4, -999.0
04-12-2023, 00:40:51,    149,    0.7,    5.4,   0.01,   0.01,  998.4,    0.3, -999.0
04-12-2023, 00:41:00,    125,    0.4,    5.3,   0.00,   0.00,  998.4,    0.2, -999.0
04-12-2023, 00:41:10,    117,    0.9,    5.4,   0.00,   0.00,  998.4,    0.3, -999.0
04-12-2023, 00:41:20,    155,    1.5,    5.4,   0.00,   0.00,  998.4,    0.4, -999.0
04-12-2023, 00:41:30,    107,    2.7,    5.2,   0.00,   0.00,  998.4,    0.4, -999.0
04-12-2023, 00:41:40,    138,    2.5,    5.3,   0.00,   0.00,  998.3,    0.5, -999.0
04-12-2023, 00:41:50,     93,    1.9,    5.4,   0.01,   0.01,  998.3,    0.5, -999.0
04-12-2023, 00:42:00,    123,    4.4,    5.4,   0.00,   0.00,  998.4,    0.4, -999.0
04-12-2023, 00:42:10,    108,    3.1,    5.3,   0.00,   0.00,  998.4,    0.3, -999.0
04-12-2023, 00:42:20,    112,    3.2,    5.4,   0.00,   0.00,  998.4,    0.4, -999.0
04-12-2023, 00:42:30,    111,    2.8,    5.4,   0.00,   0.00,  998.3,    0.4, -999.0
04-12-2023, 00:42:40,    112,    0.6,    5.4,   0.00,   0.00,  998.3,    0.3, -999.0
04-12-2023, 00:42:50,    139,    1.7,    5.4,   0.02,   0.01,  998.4,    0.3, -999.0
04-12-2023, 00:43:00,    147,    1.8,    5.4,   0.00,   0.00,  998.4,    0.4, -999.0
04-12-2023, 00:43:10,    113,    2.1,    5.4,   0.00,   0.00,  998.4,    0.2, -999.0
04-12-2023, 00:43:20,    138,    2.6,    5.3,   0.00,   0.00,  998.3,    0.5, -999.0
04-12-2023, 00:43:30,    117,    1.2,    5.2,   0.00,   0.00,  998.3,    0.4, -999.0
04-12-2023, 00:43:40,    126,    2.1,    5.4,   0.00,   0.00,  998.3,    0.4, -999.0
04-12-2023, 00:43:50,    122,    0.7,    5.3,   0.01,   0.01,  998.3,    0.4, -999.0
04-12-2023, 00:44:00,     96,    3.2,    5.3,   0.00,   0.00,  998.3,    0.3, -999.0
04-12-2023, 00:44:10,    124,    4.0,    5.4,   0.00,   0.00,  998.3,    0.3, -999.0
04-12-2023, 00:44:20,    122,    2.9,    5.4,   0.00,   0.00,  998.3,    0.2, -999.0
04-12-2023, 00:44:30,    128,    1.9,    5.4,   0.00,   0.00,  998.4,    0.3, -999.0
04-12-2023, 00:44:40,    107,    2.1,    5.4,   0.00,   0.00,  998.3,    0.4, -999.0
04-12-2023, 00:44:50,    112,    5.0,    5.3,   0.01,   0.01,  998.3,    0.3, -999.0
04-12-2023, 00:45:00,    124,    4.5,    5.3,   0.00,   0.00,  998.3,    0.5, -999.0
04-12-2023, 00:45:10,    127,    2.8,    5.4,   0.00,   0.00,  998.3,    0.5, -999.0
04-12-2023, 00:45:20,    127,    0.5,    5.3,   0.00,   0.00,  998.3,    0.4, -999.0
04-12-2023, 00:45:30,    103,    1.4,    5.3,   0.01,   0.01,  998.3,    0.2, -999.0
04-12-2023, 00:45:40,    127,    1.9,    5.3,   0.00,   0.00,  998.3,    0.4, -999.0
04-12-2023, 00:45:50,     90,    0.5,    5.4,   0.00,   0.00,  998.3,    0.4, -999.0
04-12-2023, 00:46:00,    138,    3.1,    5.3,   0.00,   0.00,  998.3,    0.4, -999.0
04-12-2023, 00:46:10,    117,    1.8,    5.3,   0.00,   0.00,  998.3,    0.2, -999.0
04-12-2023, 00:46:20,    103,    1.2,    5.3,   0.00,   0.00,  998.2,    0.2, -999.0
04-12-2023, 00:46:30,    116,    0.9,    5.3,   0.01,   0.01,  998.2,    0.3, -999.0
04-12-2023, 00:46:40,    117,    0.6,    5.4,   0.00,   0.00,  998.3,    0.4, -999.0
04-12-2023, 00:46:50,    125,    1.0,    5.4,   0.00,   0.00,  998.3,    0.3, -999.0